Orbital Elements at Epoch 2459200.5 (2020-Dec-17.0) TDB
Reference: JPL 17 (heliocentric ecliptic J2000)
Element | Value | Uncertainty (1-sigma) | Units |
e | .1332117443547474 | 3.8341e-08 | |
a | 3.212612550786795 | 2.1492e-08 | au |
q | 2.784654828960532 | 1.1707e-07 | au |
i | 2.303730402007925 | 4.9623e-06 | deg |
node | 86.9066826577864 | 0.00011752 | deg |
peri | 57.36874739166836 | 0.00011982 | deg |
M | 114.0760179521813 | 2.2799e-05 | deg |
tp | 2458534.034294816448 (2019-Feb-19.53429482) | 0.00013096 | TDB |
period | 2103.226060771618 5.76 | 2.1105e-05 5.778e-08 | d yr |
n | .1711656234745996 | 1.7176e-09 | deg/d |
Q | 3.640570272613059 | 2.4355e-08 | au |
|
| | Orbit Determination Parameters
Additional Information
|